Time,TemperatureF,DewpointF,PressureIn,WindDirection,WindDirectionDegrees,WindSpeedMPH,WindSpeedGustMPH,Humidity,HourlyPrecipIn,Conditions,Clouds,dailyrainin,SoftwareType,DateUTC
2013-03-29 00:00:00,53.1,46.1,30.27,SE,133,0.0,7.0,77,0.00,,,0.00,Wunderground v.1.15,2013-03-29 05:00:00,
2013-03-29 00:05:00,52.9,46.2,30.27,SE,132,0.0,7.0,78,0.00,,,0.00,Wunderground v.1.15,2013-03-29 05:05:00,
2013-03-29 00:11:00,52.4,46.4,30.27,SE,132,0.0,0.0,80,0.00,,,0.00,Wunderground v.1.15,2013-03-29 05:11:00,
2013-03-29 00:16:00,52.3,46.3,30.27,SE,133,0.0,0.0,80,0.00,,,0.00,Wunderground v.1.15,2013-03-29 05:16:00,
2013-03-29 00:21:00,51.9,45.9,30.27,SE,132,0.0,0.0,80,0.00,,,0.00,Wunderground v.1.15,2013-03-29 05:21:00,
2013-03-29 00:27:00,51.6,46.0,30.27,SE,133,0.0,0.0,81,0.00,,,0.00,Wunderground v.1.15,2013-03-29 05:27:00,
2013-03-29 00:32:00,51.6,46.3,30.26,SE,133,0.0,0.0,82,0.00,,,0.00,Wunderground v.1.15,2013-03-29 05:32:00,
2013-03-29 00:38:00,51.9,47.2,30.26,SE,133,0.0,0.0,84,0.00,,,0.00,Wunderground v.1.15,2013-03-29 05:38:00,
2013-03-29 00:43:00,52.2,47.5,30.26,SE,133,0.0,0.0,84,0.00,,,0.00,Wunderground v.1.15,2013-03-29 05:43:00,
2013-03-29 00:48:00,52.2,47.5,30.26,SE,132,0.0,0.0,84,0.00,,,0.00,Wunderground v.1.15,2013-03-29 05:48:00,
2013-03-29 00:53:00,52.2,47.5,30.26,SE,132,0.0,0.0,84,0.00,,,0.00,Wunderground v.1.15,2013-03-29 05:53:00,
2013-03-29 00:59:00,52.0,47.3,30.26,SE,133,0.0,0.0,84,0.00,,,0.00,Wunderground v.1.15,2013-03-29 05:59:00,
2013-03-29 01:05:00,51.8,47.4,30.26,SE,132,0.0,0.0,85,0.00,,,0.00,Wunderground v.1.15,2013-03-29 06:05:00,
2013-03-29 01:10:00,51.5,47.5,30.25,SE,133,0.0,0.0,86,0.00,,,0.00,Wunderground v.1.15,2013-03-29 06:10:00,
2013-03-29 01:17:00,51.6,48.2,30.26,SE,133,0.0,0.0,88,0.00,,,0.00,Wunderground v.1.15,2013-03-29 06:17:00,
2013-03-29 01:23:00,52.2,49.1,30.25,SE,131,1.0,2.0,89,0.00,,,0.00,Wunderground v.1.15,2013-03-29 06:23:00,
2013-03-29 01:28:00,52.5,49.4,30.25,SSE,150,1.0,1.0,89,0.00,,,0.00,Wunderground v.1.15,2013-03-29 06:28:00,
2013-03-29 01:34:00,52.5,49.4,30.25,SSE,162,1.0,2.0,89,0.00,,,0.00,Wunderground v.1.15,2013-03-29 06:34:00,
2013-03-29 01:39:00,52.6,49.4,30.25,SE,135,1.0,2.0,89,0.00,,,0.00,Wunderground v.1.15,2013-03-29 06:39:00,
2013-03-29 01:44:00,52.6,49.4,30.26,SE,143,1.0,2.0,89,0.00,,,0.00,Wunderground v.1.15,2013-03-29 06:44:00,
2013-03-29 01:50:00,52.4,49.3,30.26,SE,134,0.0,0.0,89,0.00,,,0.00,Wunderground v.1.15,2013-03-29 06:50:00,
2013-03-29 01:55:00,52.4,49.3,30.26,SE,142,0.0,1.0,89,0.00,,,0.00,Wunderground v.1.15,2013-03-29 06:55:00,
2013-03-29 02:00:00,52.2,49.4,30.26,SE,142,0.0,0.0,90,0.00,,,0.00,Wunderground v.1.15,2013-03-29 07:00:00,
2013-03-29 02:05:00,52.0,49.2,30.25,SE,145,0.0,1.0,90,0.00,,,0.00,Wunderground v.1.15,2013-03-29 07:05:00,
2013-03-29 02:11:00,52.1,49.3,30.25,SE,146,0.0,1.0,90,0.00,,,0.00,Wunderground v.1.15,2013-03-29 07:11:00,
2013-03-29 02:16:00,51.9,49.1,30.25,SE,146,0.0,0.0,90,0.00,,,0.00,Wunderground v.1.15,2013-03-29 07:16:00,
2013-03-29 02:21:00,51.4,48.6,30.25,SE,145,0.0,0.0,90,0.00,,,0.00,Wunderground v.1.15,2013-03-29 07:21:00,
2013-03-29 02:27:00,51.3,48.8,30.25,SE,146,0.0,0.0,91,0.00,,,0.00,Wunderground v.1.15,2013-03-29 07:27:00,
2013-03-29 02:32:00,51.3,48.8,30.25,SE,146,0.0,0.0,91,0.00,,,0.00,Wunderground v.1.15,2013-03-29 07:32:00,
2013-03-29 02:37:00,51.2,48.7,30.25,SE,146,0.0,0.0,91,0.00,,,0.00,Wunderground v.1.15,2013-03-29 07:37:00,
2013-03-29 02:42:00,51.0,48.5,30.25,SE,145,0.0,1.0,91,0.00,,,0.00,Wunderground v.1.15,2013-03-29 07:42:00,
2013-03-29 02:48:00,50.6,48.1,30.25,SE,145,0.0,1.0,91,0.00,,,0.00,Wunderground v.1.15,2013-03-29 07:48:00,
2013-03-29 02:53:00,50.4,48.2,30.25,SE,145,0.0,1.0,92,0.00,,,0.00,Wunderground v.1.15,2013-03-29 07:53:00,
2013-03-29 03:00:00,50.2,48.0,30.25,SE,146,0.0,0.0,92,0.00,,,0.00,Wunderground v.1.15,2013-03-29 08:00:00,
2013-03-29 03:05:00,50.1,47.9,30.25,SE,145,0.0,0.0,92,0.00,,,0.00,Wunderground v.1.15,2013-03-29 08:05:00,
2013-03-29 03:11:00,49.9,47.7,30.25,SE,146,0.0,0.0,92,0.00,,,0.00,Wunderground v.1.15,2013-03-29 08:11:00,
2013-03-29 03:16:00,49.7,47.5,30.25,SE,145,0.0,0.0,92,0.00,,,0.00,Wunderground v.1.15,2013-03-29 08:16:00,
2013-03-29 03:21:00,49.6,47.7,30.25,SE,146,0.0,0.0,93,0.00,,,0.00,Wunderground v.1.15,2013-03-29 08:21:00,
2013-03-29 03:26:00,49.7,47.8,30.25,SE,146,0.0,0.0,93,0.00,,,0.00,Wunderground v.1.15,2013-03-29 08:26:00,
2013-03-29 03:32:00,50.0,48.1,30.24,SE,145,0.0,0.0,93,0.00,,,0.00,Wunderground v.1.15,2013-03-29 08:32:00,
2013-03-29 03:37:00,50.1,48.2,30.24,SE,146,0.0,0.0,93,0.00,,,0.00,Wunderground v.1.15,2013-03-29 08:37:00,
2013-03-29 03:42:00,50.3,48.4,30.24,SE,145,0.0,0.0,93,0.00,,,0.00,Wunderground v.1.15,2013-03-29 08:42:00,
2013-03-29 03:48:00,50.5,48.8,30.24,SW,225,0.0,1.0,94,0.00,,,0.00,Wunderground v.1.15,2013-03-29 08:48:00,
2013-03-29 03:53:00,51.3,49.9,30.24,SSW,210,1.0,2.0,95,0.00,,,0.00,Wunderground v.1.15,2013-03-29 08:53:00,
2013-03-29 03:58:00,51.5,49.8,30.24,WSW,250,1.0,1.0,94,0.00,,,0.00,Wunderground v.1.15,2013-03-29 08:58:00,
2013-03-29 04:04:00,51.8,50.1,30.24,South,191,1.0,1.0,94,0.00,,,0.00,Wunderground v.1.15,2013-03-29 09:04:00,
2013-03-29 04:10:00,52.0,50.3,30.24,SSE,163,1.0,2.0,94,0.00,,,0.00,Wunderground v.1.15,2013-03-29 09:10:00,
2013-03-29 04:15:00,52.1,50.4,30.24,South,187,1.0,2.0,94,0.00,,,0.00,Wunderground v.1.15,2013-03-29 09:15:00,
2013-03-29 04:20:00,52.1,50.4,30.24,South,169,1.0,1.0,94,0.00,,,0.00,Wunderground v.1.15,2013-03-29 09:20:00,
2013-03-29 04:26:00,52.1,50.4,30.24,SSE,150,1.0,1.0,94,0.00,,,0.00,Wunderground v.1.15,2013-03-29 09:26:00,
2013-03-29 04:31:00,52.0,50.3,30.24,SSE,162,1.0,2.0,94,0.00,,,0.00,Wunderground v.1.15,2013-03-29 09:31:00,
2013-03-29 04:37:00,52.0,50.3,30.24,SSE,165,1.0,2.0,94,0.00,,,0.00,Wunderground v.1.15,2013-03-29 09:37:00,
2013-03-29 04:42:00,52.1,50.4,30.24,South,173,1.0,2.0,94,0.00,,,0.00,Wunderground v.1.15,2013-03-29 09:42:00,
2013-03-29 04:47:00,52.2,50.5,30.24,SSE,163,1.0,2.0,94,0.00,,,0.00,Wunderground v.1.15,2013-03-29 09:47:00,
2013-03-29 04:53:00,52.2,50.5,30.25,South,170,1.0,2.0,94,0.00,,,0.00,Wunderground v.1.15,2013-03-29 09:53:00,
2013-03-29 04:58:00,52.2,50.5,30.25,SSE,159,1.0,1.0,94,0.00,,,0.00,Wunderground v.1.15,2013-03-29 09:58:00,
2013-03-29 05:03:00,52.4,50.7,30.25,SSW,207,1.0,1.0,94,0.00,,,0.00,Wunderground v.1.15,2013-03-29 10:03:00,
2013-03-29 05:09:00,52.5,50.8,30.25,SSW,207,1.0,1.0,94,0.00,,,0.00,Wunderground v.1.15,2013-03-29 10:09:00,
2013-03-29 05:14:00,52.6,50.9,30.25,SSW,200,1.0,1.0,94,0.00,,,0.00,Wunderground v.1.15,2013-03-29 10:14:00,
2013-03-29 05:20:00,52.7,51.0,30.26,South,173,1.0,1.0,94,0.00,,,0.00,Wunderground v.1.15,2013-03-29 10:20:00,
2013-03-29 05:25:00,52.8,51.1,30.25,SW,232,1.0,1.0,94,0.00,,,0.00,Wunderground v.1.15,2013-03-29 10:25:00,
2013-03-29 05:31:00,52.9,51.2,30.25,SSW,197,0.0,1.0,94,0.00,,,0.00,Wunderground v.1.15,2013-03-29 10:31:00,
2013-03-29 05:36:00,52.9,51.2,30.26,SSW,197,0.0,0.0,94,0.00,,,0.00,Wunderground v.1.15,2013-03-29 10:36:00,
2013-03-29 05:42:00,53.0,51.3,30.26,SSW,207,0.0,0.0,94,0.00,,,0.00,Wunderground v.1.15,2013-03-29 10:42:00,
2013-03-29 05:47:00,53.1,51.4,30.26,SSW,207,0.0,0.0,94,0.00,,,0.00,Wunderground v.1.15,2013-03-29 10:47:00,
2013-03-29 05:53:00,53.2,51.5,30.26,SE,134,0.0,0.0,94,0.00,,,0.00,Wunderground v.1.15,2013-03-29 10:53:00,
2013-03-29 05:58:00,53.2,51.5,30.26,SE,134,0.0,0.0,94,0.00,,,0.00,Wunderground v.1.15,2013-03-29 10:58:00,
2013-03-29 06:03:00,53.2,51.5,30.26,SE,134,0.0,0.0,94,0.00,,,0.00,Wunderground v.1.15,2013-03-29 11:03:00,
2013-03-29 06:09:00,53.3,51.6,30.26,SE,134,0.0,0.0,94,0.00,,,0.00,Wunderground v.1.15,2013-03-29 11:09:00,
2013-03-29 06:14:00,53.3,51.6,30.26,SSE,148,0.0,1.0,94,0.00,,,0.00,Wunderground v.1.15,2013-03-29 11:14:00,
2013-03-29 06:20:00,53.3,51.6,30.26,SSE,163,1.0,2.0,94,0.00,,,0.00,Wunderground v.1.15,2013-03-29 11:20:00,
2013-03-29 06:25:00,53.3,51.6,30.26,SSE,163,1.0,2.0,94,0.00,,,0.00,Wunderground v.1.15,2013-03-29 11:25:00,
2013-03-29 06:31:00,53.1,51.4,30.26,SSE,163,0.0,0.0,94,0.00,,,0.00,Wunderground v.1.15,2013-03-29 11:31:00,
2013-03-29 06:36:00,52.9,51.2,30.27,SSE,164,0.0,0.0,94,0.00,,,0.00,Wunderground v.1.15,2013-03-29 11:36:00,
2013-03-29 06:42:00,52.8,51.1,30.27,SSE,163,0.0,0.0,94,0.00,,,0.00,Wunderground v.1.15,2013-03-29 11:42:00,
2013-03-29 06:47:00,52.7,51.0,30.27,SSE,164,0.0,0.0,94,0.00,,,0.00,Wunderground v.1.15,2013-03-29 11:47:00,
2013-03-29 06:53:00,52.6,50.9,30.27,SSE,163,0.0,0.0,94,0.00,,,0.00,Wunderground v.1.15,2013-03-29 11:53:00,
2013-03-29 06:58:00,52.6,50.9,30.27,SSE,163,0.0,0.0,94,0.00,,,0.00,Wunderground v.1.15,2013-03-29 11:58:00,
2013-03-29 07:03:00,52.5,50.8,30.27,SSE,163,0.0,0.0,94,0.00,,,0.00,Wunderground v.1.15,2013-03-29 12:03:00,
2013-03-29 07:09:00,52.3,50.6,30.27,SSE,163,0.0,0.0,94,0.00,,,0.00,Wunderground v.1.15,2013-03-29 12:09:00,
2013-03-29 07:15:00,52.3,50.6,30.27,SSE,163,0.0,0.0,94,0.00,,,0.00,Wunderground v.1.15,2013-03-29 12:15:00,
2013-03-29 07:20:00,52.3,50.6,30.27,SSE,163,0.0,0.0,94,0.00,,,0.00,Wunderground v.1.15,2013-03-29 12:20:00,
2013-03-29 07:26:00,52.4,50.7,30.27,SE,134,1.0,1.0,94,0.00,,,0.00,Wunderground v.1.15,2013-03-29 12:26:00,
2013-03-29 07:32:00,52.6,51.2,30.27,SSE,153,1.0,1.0,95,0.00,,,0.00,Wunderground v.1.15,2013-03-29 12:32:00,
2013-03-29 07:38:00,52.8,51.4,30.28,SSE,150,1.0,1.0,95,0.00,,,0.00,Wunderground v.1.15,2013-03-29 12:38:00,
2013-03-29 07:44:00,52.8,51.1,30.28,SSE,150,0.0,1.0,94,0.00,,,0.00,Wunderground v.1.15,2013-03-29 12:44:00,
2013-03-29 07:50:00,52.8,51.1,30.28,SSE,150,0.0,0.0,94,0.00,,,0.00,Wunderground v.1.15,2013-03-29 12:50:00,
2013-03-29 07:55:00,53.0,51.6,30.28,SSE,149,0.0,0.0,95,0.00,,,0.00,Wunderground v.1.15,2013-03-29 12:55:00,
2013-03-29 08:00:00,53.4,52.0,30.28,ESE,120,0.0,2.0,95,0.00,,,0.00,Wunderground v.1.15,2013-03-29 13:00:00,
2013-03-29 08:06:00,54.0,52.6,30.28,ESE,120,1.0,1.0,95,0.00,,,0.00,Wunderground v.1.15,2013-03-29 13:06:00,
2013-03-29 08:12:00,54.9,53.2,30.28,SE,146,1.0,3.0,94,0.00,,,0.00,Wunderground v.1.15,2013-03-29 13:12:00,
2013-03-29 08:17:00,55.5,53.5,30.28,SSE,158,1.0,2.0,93,0.00,,,0.00,Wunderground v.1.15,2013-03-29 13:17:00,
2013-03-29 08:22:00,56.0,53.4,30.29,SE,146,2.0,2.0,91,0.00,,,0.00,Wunderground v.1.15,2013-03-29 13:22:00,
2013-03-29 08:28:00,56.5,53.6,30.29,SSE,158,2.0,2.0,90,0.00,,,0.00,Wunderground v.1.15,2013-03-29 13:28:00,
2013-03-29 08:35:00,57.0,53.8,30.29,WSW,240,2.0,3.0,89,0.00,,,0.00,Wunderground v.1.15,2013-03-29 13:35:00,
2013-03-29 08:40:00,57.5,54.0,30.29,South,173,2.0,3.0,88,0.00,,,0.00,Wunderground v.1.15,2013-03-29 13:40:00,
2013-03-29 08:45:00,58.1,54.2,30.29,SE,130,2.0,4.0,87,0.00,,,0.00,Wunderground v.1.15,2013-03-29 13:45:00,
2013-03-29 08:51:00,58.6,54.7,30.29,SSW,200,2.0,2.0,87,0.00,,,0.00,Wunderground v.1.15,2013-03-29 13:51:00,
2013-03-29 08:56:00,59.3,54.5,30.29,ESE,110,2.0,3.0,84,0.00,,,0.00,Wunderground v.1.15,2013-03-29 13:56:00,
2013-03-29 09:01:00,59.9,55.4,30.29,SSE,160,2.0,3.0,85,0.00,,,0.00,Wunderground v.1.15,2013-03-29 14:01:00,
2013-03-29 09:07:00,60.3,55.1,30.28,South,181,3.0,3.0,83,0.00,,,0.00,Wunderground v.1.15,2013-03-29 14:07:00,
2013-03-29 09:12:00,60.8,55.3,30.28,SW,233,3.0,7.0,82,0.00,,,0.00,Wunderground v.1.15,2013-03-29 14:12:00,
2013-03-29 09:17:00,61.0,55.1,30.28,SW,219,3.0,6.0,81,0.00,,,0.00,Wunderground v.1.15,2013-03-29 14:17:00,
2013-03-29 09:22:00,61.5,55.6,30.28,SE,132,3.0,6.0,81,0.00,,,0.00,Wunderground v.1.15,2013-03-29 14:22:00,
2013-03-29 09:27:00,62.0,55.8,30.28,SW,223,3.0,4.0,80,0.00,,,0.00,Wunderground v.1.15,2013-03-29 14:27:00,
2013-03-29 09:33:00,62.4,56.1,30.28,SSE,163,3.0,5.0,80,0.00,,,0.00,Wunderground v.1.15,2013-03-29 14:33:00,
2013-03-29 09:38:00,63.1,56.5,30.28,SSE,167,3.0,3.0,79,0.00,,,0.00,Wunderground v.1.15,2013-03-29 14:38:00,
2013-03-29 09:43:00,63.4,56.4,30.28,SSE,158,3.0,5.0,78,0.00,,,0.00,Wunderground v.1.15,2013-03-29 14:43:00,
2013-03-29 09:48:00,64.1,56.7,30.27,SSE,151,4.0,4.0,77,0.00,,,0.00,Wunderground v.1.15,2013-03-29 14:48:00,
2013-03-29 09:53:00,64.6,56.9,30.27,SW,225,3.0,4.0,76,0.00,,,0.00,Wunderground v.1.15,2013-03-29 14:53:00,
2013-03-29 09:59:00,65.5,57.4,30.28,South,177,3.0,4.0,75,0.00,,,0.00,Wunderground v.1.15,2013-03-29 14:59:00,
2013-03-29 10:05:00,66.0,57.5,30.27,SW,233,2.0,4.0,74,0.00,,,0.00,Wunderground v.1.15,2013-03-29 15:05:00,
2013-03-29 10:10:00,66.7,57.0,30.27,East,89,2.0,2.0,71,0.00,,,0.00,Wunderground v.1.15,2013-03-29 15:10:00,
2013-03-29 10:17:00,67.7,55.9,30.27,SW,235,2.0,5.0,66,0.00,,,0.00,Wunderground v.1.15,2013-03-29 15:17:00,
2013-03-29 10:22:00,67.9,53.5,30.27,WSW,238,2.0,5.0,60,0.00,,,0.00,Wunderground v.1.15,2013-03-29 15:22:00,
2013-03-29 10:27:00,68.0,53.6,30.27,WSW,246,3.0,3.0,60,0.00,,,0.00,Wunderground v.1.15,2013-03-29 15:27:00,
2013-03-29 10:32:00,68.4,53.0,30.27,WSW,251,3.0,4.0,58,0.00,,,0.00,Wunderground v.1.15,2013-03-29 15:32:00,
2013-03-29 10:38:00,69.0,53.1,30.27,WSW,238,3.0,3.0,57,0.00,,,0.00,Wunderground v.1.15,2013-03-29 15:38:00,
2013-03-29 10:45:00,69.1,50.2,30.27,WSW,255,3.0,7.0,51,0.00,,,0.00,Wunderground v.1.15,2013-03-29 15:45:00,
2013-03-29 10:50:00,69.5,49.5,30.27,SSW,197,4.0,4.0,49,0.00,,,0.00,Wunderground v.1.15,2013-03-29 15:50:00,
2013-03-29 10:55:00,70.0,50.5,30.27,SW,231,4.0,5.0,50,0.00,,,0.00,Wunderground v.1.15,2013-03-29 15:55:00,
2013-03-29 11:00:00,70.4,50.9,30.27,SSW,212,3.0,5.0,50,0.00,,,0.00,Wunderground v.1.15,2013-03-29 16:00:00,
2013-03-29 11:07:00,70.6,50.5,30.27,WSW,243,3.0,4.0,49,0.00,,,0.00,Wunderground v.1.15,2013-03-29 16:07:00,
2013-03-29 11:12:00,71.0,50.9,30.26,WSW,255,3.0,6.0,49,0.00,,,0.00,Wunderground v.1.15,2013-03-29 16:12:00,
2013-03-29 11:17:00,71.3,49.4,30.26,SSE,157,3.0,7.0,46,0.00,,,0.00,Wunderground v.1.15,2013-03-29 16:17:00,
2013-03-29 11:23:00,71.6,47.9,30.26,SW,226,4.0,7.0,43,0.00,,,0.00,Wunderground v.1.15,2013-03-29 16:23:00,
2013-03-29 11:29:00,72.0,48.3,30.26,SSE,153,4.0,5.0,43,0.00,,,0.00,Wunderground v.1.15,2013-03-29 16:29:00,
2013-03-29 11:34:00,72.1,47.1,30.26,SSE,158,4.0,7.0,41,0.00,,,0.00,Wunderground v.1.15,2013-03-29 16:34:00,
2013-03-29 11:40:00,72.1,49.0,30.26,South,191,4.0,5.0,44,0.00,,,0.00,Wunderground v.1.15,2013-03-29 16:40:00,
2013-03-29 11:45:00,72.7,50.1,30.25,SSE,153,3.0,7.0,45,0.00,,,0.00,Wunderground v.1.15,2013-03-29 16:45:00,
2013-03-29 11:50:00,72.6,47.5,30.25,SE,141,4.0,6.0,41,0.00,,,0.00,Wunderground v.1.15,2013-03-29 16:50:00,
2013-03-29 11:56:00,72.3,49.2,30.25,SW,221,6.0,6.0,44,0.00,,,0.00,Wunderground v.1.15,2013-03-29 16:56:00,
2013-03-29 12:01:00,72.5,46.8,30.25,SSW,194,6.0,8.0,40,0.00,,,0.00,Wunderground v.1.15,2013-03-29 17:01:00,
2013-03-29 12:07:00,72.8,46.4,30.24,WSW,248,5.0,7.0,39,0.00,,,0.00,Wunderground v.1.15,2013-03-29 17:07:00,
2013-03-29 12:13:00,73.3,46.8,30.24,SSE,152,4.0,10.0,39,0.00,,,0.00,Wunderground v.1.15,2013-03-29 17:13:00,
2013-03-29 12:18:00,73.6,45.7,30.24,WSW,240,5.0,9.0,37,0.00,,,0.00,Wunderground v.1.15,2013-03-29 17:18:00,
2013-03-29 12:23:00,73.4,44.8,30.24,SSE,163,6.0,13.0,36,0.00,,,0.00,Wunderground v.1.15,2013-03-29 17:23:00,
2013-03-29 12:30:00,73.6,45.7,30.23,SSE,155,5.0,6.0,37,0.00,,,0.00,Wunderground v.1.15,2013-03-29 17:30:00,
2013-03-29 12:35:00,74.1,46.2,30.23,WSW,257,4.0,8.0,37,0.00,,,0.00,Wunderground v.1.15,2013-03-29 17:35:00,
2013-03-29 12:41:00,74.5,46.5,30.23,South,184,4.0,7.0,37,0.00,,,0.00,Wunderground v.1.15,2013-03-29 17:41:00,
2013-03-29 12:46:00,74.8,46.1,30.22,SW,234,4.0,4.0,36,0.00,,,0.00,Wunderground v.1.15,2013-03-29 17:46:00,
2013-03-29 12:51:00,75.0,46.2,30.22,South,185,4.0,5.0,36,0.00,,,0.00,Wunderground v.1.15,2013-03-29 17:51:00,
2013-03-29 12:57:00,74.9,46.1,30.22,WSW,240,4.0,6.0,36,0.00,,,0.00,Wunderground v.1.15,2013-03-29 17:57:00,
2013-03-29 13:02:00,75.0,44.7,30.22,SSE,157,4.0,10.0,34,0.00,,,0.00,Wunderground v.1.15,2013-03-29 18:02:00,
2013-03-29 13:07:00,74.9,45.4,30.21,SE,145,5.0,10.0,35,0.00,,,0.00,Wunderground v.1.15,2013-03-29 18:07:00,
2013-03-29 13:13:00,75.4,43.5,30.21,South,184,5.0,10.0,32,0.00,,,0.00,Wunderground v.1.15,2013-03-29 18:13:00,
2013-03-29 13:18:00,75.3,46.5,30.21,South,180,5.0,10.0,36,0.00,,,0.00,Wunderground v.1.15,2013-03-29 18:18:00,
2013-03-29 13:24:00,75.9,45.5,30.20,WNW,297,4.0,10.0,34,0.00,,,0.00,Wunderground v.1.15,2013-03-29 18:24:00,
2013-03-29 13:30:00,76.0,44.8,30.20,SSW,197,4.0,10.0,33,0.00,,,0.00,Wunderground v.1.15,2013-03-29 18:30:00,
2013-03-29 13:35:00,76.0,44.0,30.20,SSE,150,5.0,10.0,32,0.00,,,0.00,Wunderground v.1.15,2013-03-29 18:35:00,
2013-03-29 13:40:00,76.2,45.8,30.20,NNW,345,4.0,10.0,34,0.00,,,0.00,Wunderground v.1.15,2013-03-29 18:40:00,
2013-03-29 13:45:00,76.4,44.4,30.20,SSW,205,4.0,10.0,32,0.00,,,0.00,Wunderground v.1.15,2013-03-29 18:45:00,
2013-03-29 13:51:00,76.4,45.2,30.19,SSE,162,5.0,10.0,33,0.00,,,0.00,Wunderground v.1.15,2013-03-29 18:51:00,
2013-03-29 13:57:00,76.4,44.4,30.19,SE,141,4.0,4.0,32,0.00,,,0.00,Wunderground v.1.15,2013-03-29 18:57:00,
2013-03-29 14:02:00,76.6,44.5,30.19,South,170,5.0,10.0,32,0.00,,,0.00,Wunderground v.1.15,2013-03-29 19:02:00,
2013-03-29 14:07:00,76.6,46.1,30.18,WSW,253,6.0,10.0,34,0.00,,,0.00,Wunderground v.1.15,2013-03-29 19:07:00,
2013-03-29 14:13:00,77.2,47.4,30.18,SSE,164,4.0,10.0,35,0.00,,,0.00,Wunderground v.1.15,2013-03-29 19:13:00,
2013-03-29 14:18:00,77.2,45.9,30.18,SE,142,4.0,10.0,33,0.00,,,0.00,Wunderground v.1.15,2013-03-29 19:18:00,
2013-03-29 14:23:00,76.6,46.1,30.17,SE,134,5.0,10.0,34,0.00,,,0.00,Wunderground v.1.15,2013-03-29 19:23:00,
2013-03-29 14:28:00,76.5,46.8,30.17,WSW,246,6.0,10.0,35,0.00,,,0.00,Wunderground v.1.15,2013-03-29 19:28:00,
2013-03-29 14:35:00,77.0,47.2,30.17,WNW,282,5.0,10.0,35,0.00,,,0.00,Wunderground v.1.15,2013-03-29 19:35:00,
2013-03-29 14:40:00,76.9,47.9,30.17,SE,146,4.0,10.0,36,0.00,,,0.00,Wunderground v.1.15,2013-03-29 19:40:00,
2013-03-29 14:45:00,77.4,48.3,30.16,SSE,166,4.0,10.0,36,0.00,,,0.00,Wunderground v.1.15,2013-03-29 19:45:00,
2013-03-29 14:51:00,77.2,47.4,30.17,SW,219,5.0,10.0,35,0.00,,,0.00,Wunderground v.1.15,2013-03-29 19:51:00,
2013-03-29 14:56:00,77.1,47.3,30.16,SSE,153,6.0,6.0,35,0.00,,,0.00,Wunderground v.1.15,2013-03-29 19:56:00,
2013-03-29 15:02:00,77.0,48.7,30.16,SSW,207,6.0,10.0,37,0.00,,,0.00,Wunderground v.1.15,2013-03-29 20:02:00,
2013-03-29 15:07:00,77.1,48.8,30.16,West,267,5.0,10.0,37,0.00,,,0.00,Wunderground v.1.15,2013-03-29 20:07:00,
2013-03-29 15:13:00,77.3,48.3,30.16,South,181,5.0,10.0,36,0.00,,,0.00,Wunderground v.1.15,2013-03-29 20:13:00,
2013-03-29 15:18:00,77.5,47.7,30.16,SSE,149,5.0,10.0,35,0.00,,,0.00,Wunderground v.1.15,2013-03-29 20:18:00,
2013-03-29 15:23:00,77.6,49.3,30.15,South,188,4.0,10.0,37,0.00,,,0.00,Wunderground v.1.15,2013-03-29 20:23:00,
2013-03-29 15:29:00,78.4,50.0,30.15,SSW,207,4.0,10.0,37,0.00,,,0.00,Wunderground v.1.15,2013-03-29 20:29:00,
2013-03-29 15:35:00,78.2,49.8,30.15,SE,136,5.0,10.0,37,0.00,,,0.00,Wunderground v.1.15,2013-03-29 20:35:00,
2013-03-29 15:40:00,78.2,49.8,30.15,SE,131,5.0,10.0,37,0.00,,,0.00,Wunderground v.1.15,2013-03-29 20:40:00,
2013-03-29 15:46:00,77.9,51.6,30.15,SSW,197,6.0,6.0,40,0.00,,,0.00,Wunderground v.1.15,2013-03-29 20:46:00,
2013-03-29 15:51:00,77.4,51.2,30.15,SE,142,6.0,10.0,40,0.00,,,0.00,Wunderground v.1.15,2013-03-29 20:51:00,
2013-03-29 15:57:00,76.9,51.4,30.15,SSE,160,5.0,6.0,41,0.00,,,0.00,Wunderground v.1.15,2013-03-29 20:57:00,
2013-03-29 16:03:00,76.5,52.3,30.15,SSE,166,4.0,10.0,43,0.00,,,0.00,Wunderground v.1.15,2013-03-29 21:03:00,
2013-03-29 16:08:00,76.4,52.9,30.15,SE,134,4.0,10.0,44,0.00,,,0.00,Wunderground v.1.15,2013-03-29 21:08:00,
2013-03-29 16:13:00,76.5,54.2,30.15,SW,217,3.0,10.0,46,0.00,,,0.00,Wunderground v.1.15,2013-03-29 21:13:00,
2013-03-29 16:19:00,76.3,53.4,30.15,SW,219,3.0,10.0,45,0.00,,,0.00,Wunderground v.1.15,2013-03-29 21:19:00,
2013-03-29 16:25:00,76.0,53.1,30.15,SW,231,3.0,10.0,45,0.00,,,0.00,Wunderground v.1.15,2013-03-29 21:25:00,
2013-03-29 16:30:00,76.0,54.3,30.14,South,177,3.0,10.0,47,0.00,,,0.00,Wunderground v.1.15,2013-03-29 21:30:00,
2013-03-29 16:36:00,76.3,54.0,30.15,SW,217,3.0,10.0,46,0.00,,,0.00,Wunderground v.1.15,2013-03-29 21:36:00,
2013-03-29 16:41:00,76.4,54.1,30.14,SW,231,3.0,10.0,46,0.00,,,0.00,Wunderground v.1.15,2013-03-29 21:41:00,
2013-03-29 16:46:00,76.2,55.6,30.14,South,173,4.0,10.0,49,0.00,,,0.00,Wunderground v.1.15,2013-03-29 21:46:00,
2013-03-29 16:52:00,76.2,55.6,30.15,SW,225,3.0,10.0,49,0.00,,,0.00,Wunderground v.1.15,2013-03-29 21:52:00,
2013-03-29 16:58:00,75.9,55.9,30.14,WSW,238,2.0,10.0,50,0.00,,,0.00,Wunderground v.1.15,2013-03-29 21:58:00,
2013-03-29 17:03:00,75.5,55.0,30.15,SW,234,2.0,10.0,49,0.00,,,0.00,Wunderground v.1.15,2013-03-29 22:03:00,
2013-03-29 17:09:00,75.0,55.1,30.15,WSW,243,3.0,10.0,50,0.00,,,0.00,Wunderground v.1.15,2013-03-29 22:09:00,
2013-03-29 17:14:00,74.8,55.5,30.15,WSW,238,3.0,10.0,51,0.00,,,0.00,Wunderground v.1.15,2013-03-29 22:14:00,
2013-03-29 17:20:00,74.7,55.4,30.15,SW,214,2.0,10.0,51,0.00,,,0.00,Wunderground v.1.15,2013-03-29 22:20:00,
2013-03-29 17:25:00,74.7,55.4,30.15,WSW,246,2.0,10.0,51,0.00,,,0.00,Wunderground v.1.15,2013-03-29 22:25:00,
2013-03-29 17:30:00,74.6,55.8,30.15,SW,214,2.0,10.0,52,0.00,,,0.00,Wunderground v.1.15,2013-03-29 22:30:00,
2013-03-29 17:36:00,74.6,55.8,30.15,SSE,153,2.0,10.0,52,0.00,,,0.00,Wunderground v.1.15,2013-03-29 22:36:00,
2013-03-29 17:42:00,74.5,55.7,30.15,SSW,202,2.0,10.0,52,0.00,,,0.00,Wunderground v.1.15,2013-03-29 22:42:00,
2013-03-29 17:47:00,74.5,55.7,30.15,WSW,243,2.0,2.0,52,0.00,,,0.00,Wunderground v.1.15,2013-03-29 22:47:00,
2013-03-29 17:52:00,74.5,55.7,30.15,South,177,2.0,10.0,52,0.00,,,0.00,Wunderground v.1.15,2013-03-29 22:52:00,
2013-03-29 17:58:00,74.5,55.7,30.15,SW,229,2.0,10.0,52,0.00,,,0.00,Wunderground v.1.15,2013-03-29 22:58:00,
2013-03-29 18:03:00,74.4,56.2,30.15,SW,234,2.0,10.0,53,0.00,,,0.00,Wunderground v.1.15,2013-03-29 23:03:00,
2013-03-29 18:08:00,74.4,56.2,30.15,SSW,204,2.0,10.0,53,0.00,,,0.00,Wunderground v.1.15,2013-03-29 23:08:00,
2013-03-29 18:15:00,74.3,57.1,30.15,SW,219,1.0,10.0,55,0.00,,,0.00,Wunderground v.1.15,2013-03-29 23:15:00,
2013-03-29 18:20:00,74.2,56.0,30.15,SSW,195,2.0,10.0,53,0.00,,,0.00,Wunderground v.1.15,2013-03-29 23:20:00,
2013-03-29 18:25:00,74.0,55.8,30.15,SSE,153,2.0,10.0,53,0.00,,,0.00,Wunderground v.1.15,2013-03-29 23:25:00,
2013-03-29 18:31:00,73.9,56.2,30.15,SSW,210,2.0,10.0,54,0.00,,,0.00,Wunderground v.1.15,2013-03-29 23:31:00,
2013-03-29 18:37:00,73.8,56.1,30.15,SW,228,1.0,10.0,54,0.00,,,0.00,Wunderground v.1.15,2013-03-29 23:37:00,
2013-03-29 18:42:00,73.7,56.0,30.15,SSW,194,1.0,10.0,54,0.00,,,0.00,Wunderground v.1.15,2013-03-29 23:42:00,
2013-03-29 18:47:00,73.6,55.9,30.15,WSW,243,1.0,10.0,54,0.00,,,0.00,Wunderground v.1.15,2013-03-29 23:47:00,
2013-03-29 18:53:00,73.4,55.7,30.15,SSW,205,1.0,10.0,54,0.00,,,0.00,Wunderground v.1.15,2013-03-29 23:53:00,
2013-03-29 18:58:00,73.3,56.2,30.15,WSW,252,1.0,10.0,55,0.00,,,0.00,Wunderground v.1.15,2013-03-29 23:58:00,
2013-03-29 19:03:00,73.1,56.0,30.15,SSW,201,1.0,10.0,55,0.00,,,0.00,Wunderground v.1.15,2013-03-30 00:03:00,
2013-03-29 19:09:00,73.0,56.4,30.15,SW,227,0.0,10.0,56,0.00,,,0.00,Wunderground v.1.15,2013-03-30 00:09:00,
2013-03-29 19:15:00,72.7,56.1,30.15,SW,218,1.0,10.0,56,0.00,,,0.00,Wunderground v.1.15,2013-03-30 00:15:00,
2013-03-29 19:20:00,72.4,56.3,30.15,WSW,249,1.0,10.0,57,0.00,,,0.00,Wunderground v.1.15,2013-03-30 00:20:00,
2013-03-29 19:26:00,72.2,56.1,30.15,South,191,1.0,1.0,57,0.00,,,0.00,Wunderground v.1.15,2013-03-30 00:26:00,
2013-03-29 19:31:00,72.0,56.4,30.15,SW,222,1.0,10.0,58,0.00,,,0.00,Wunderground v.1.15,2013-03-30 00:31:00,
2013-03-29 19:36:00,71.7,56.1,30.15,SW,221,1.0,10.0,58,0.00,,,0.00,Wunderground v.1.15,2013-03-30 00:36:00,
2013-03-29 19:42:00,71.5,56.4,30.15,SW,226,1.0,10.0,59,0.00,,,0.00,Wunderground v.1.15,2013-03-30 00:42:00,
2013-03-29 19:47:00,71.2,56.6,30.15,SW,235,1.0,10.0,60,0.00,,,0.00,Wunderground v.1.15,2013-03-30 00:47:00,
2013-03-29 19:53:00,70.9,56.3,30.15,SSW,194,1.0,10.0,60,0.00,,,0.00,Wunderground v.1.15,2013-03-30 00:53:00,
2013-03-29 19:58:00,70.6,56.5,30.15,WSW,252,1.0,10.0,61,0.00,,,0.00,Wunderground v.1.15,2013-03-30 00:58:00,
2013-03-29 20:04:00,70.3,56.7,30.15,South,176,1.0,10.0,62,0.00,,,0.00,Wunderground v.1.15,2013-03-30 01:04:00,
2013-03-29 20:10:00,70.0,56.4,30.15,SW,235,1.0,10.0,62,0.00,,,0.00,Wunderground v.1.15,2013-03-30 01:10:00,
2013-03-29 20:15:00,69.8,56.6,30.15,SSW,208,1.0,10.0,63,0.00,,,0.00,Wunderground v.1.15,2013-03-30 01:15:00,
2013-03-29 20:21:00,69.6,56.4,30.16,SSW,204,1.0,10.0,63,0.00,,,0.00,Wunderground v.1.15,2013-03-30 01:21:00,
2013-03-29 20:27:00,69.3,56.6,30.16,SSW,212,1.0,10.0,64,0.00,,,0.00,Wunderground v.1.15,2013-03-30 01:27:00,
2013-03-29 20:32:00,69.0,56.3,30.16,SW,231,1.0,10.0,64,0.00,,,0.00,Wunderground v.1.15,2013-03-30 01:32:00,
2013-03-29 20:38:00,68.7,56.5,30.16,SSE,160,1.0,10.0,65,0.00,,,0.00,Wunderground v.1.15,2013-03-30 01:38:00,
2013-03-29 20:43:00,68.5,56.3,30.16,SW,215,1.0,10.0,65,0.00,,,0.00,Wunderground v.1.15,2013-03-30 01:43:00,
2013-03-29 20:49:00,68.3,56.5,30.15,SSE,150,1.0,10.0,66,0.00,,,0.00,Wunderground v.1.15,2013-03-30 01:49:00,
2013-03-29 20:55:00,67.9,56.5,30.16,South,169,1.0,10.0,67,0.00,,,0.00,Wunderground v.1.15,2013-03-30 01:55:00,
2013-03-29 21:00:00,67.7,56.3,30.16,SSE,168,1.0,10.0,67,0.00,,,0.00,Wunderground v.1.15,2013-03-30 02:00:00,
2013-03-29 21:06:00,67.3,56.4,30.16,South,173,1.0,1.0,68,0.00,,,0.00,Wunderground v.1.15,2013-03-30 02:06:00,
2013-03-29 21:11:00,67.0,56.5,30.16,South,169,1.0,10.0,69,0.00,,,0.00,Wunderground v.1.15,2013-03-30 02:11:00,
2013-03-29 21:16:00,66.7,56.2,30.16,SSW,200,1.0,10.0,69,0.00,,,0.00,Wunderground v.1.15,2013-03-30 02:16:00,
2013-03-29 21:22:00,66.5,56.4,30.16,SSW,200,1.0,10.0,70,0.00,,,0.00,Wunderground v.1.15,2013-03-30 02:22:00,
2013-03-29 21:28:00,66.3,56.6,30.16,SSW,207,1.0,10.0,71,0.00,,,0.00,Wunderground v.1.15,2013-03-30 02:28:00,
2013-03-29 21:33:00,66.2,56.5,30.16,SSE,166,1.0,10.0,71,0.00,,,0.00,Wunderground v.1.15,2013-03-30 02:33:00,
2013-03-29 21:39:00,66.0,56.3,30.16,SW,236,1.0,10.0,71,0.00,,,0.00,Wunderground v.1.15,2013-03-30 02:39:00,
2013-03-29 21:44:00,65.9,56.6,30.16,SSW,207,1.0,10.0,72,0.00,,,0.00,Wunderground v.1.15,2013-03-30 02:44:00,
2013-03-29 21:50:00,65.8,56.5,30.16,SW,224,2.0,10.0,72,0.00,,,0.00,Wunderground v.1.15,2013-03-30 02:50:00,
2013-03-29 21:55:00,65.7,56.8,30.16,WSW,242,2.0,10.0,73,0.00,,,0.00,Wunderground v.1.15,2013-03-30 02:55:00,
2013-03-29 22:01:00,65.5,56.6,30.16,SSW,207,1.0,10.0,73,0.00,,,0.00,Wunderground v.1.15,2013-03-30 03:01:00,
2013-03-29 22:06:00,65.3,56.8,30.16,SW,218,1.0,10.0,74,0.00,,,0.00,Wunderground v.1.15,2013-03-30 03:06:00,
2013-03-29 22:11:00,65.1,57.0,30.16,SSW,210,2.0,10.0,75,0.00,,,0.00,Wunderground v.1.15,2013-03-30 03:11:00,
2013-03-29 22:17:00,65.0,56.9,30.16,SW,229,2.0,10.0,75,0.00,,,0.00,Wunderground v.1.15,2013-03-30 03:17:00,
2013-03-29 22:22:00,65.0,56.9,30.16,SW,221,3.0,10.0,75,0.00,,,0.00,Wunderground v.1.15,2013-03-30 03:22:00,
2013-03-29 22:27:00,64.9,57.2,30.16,South,181,3.0,10.0,76,0.00,,,0.00,Wunderground v.1.15,2013-03-30 03:27:00,
2013-03-29 22:33:00,64.8,57.1,30.16,West,259,3.0,10.0,76,0.00,,,0.00,Wunderground v.1.15,2013-03-30 03:33:00,
2013-03-29 22:38:00,64.7,57.0,30.16,SSE,164,3.0,10.0,76,0.00,,,0.00,Wunderground v.1.15,2013-03-30 03:38:00,
2013-03-29 22:44:00,64.6,57.2,30.16,South,181,3.0,10.0,77,0.00,,,0.00,Wunderground v.1.15,2013-03-30 03:44:00,
2013-03-29 22:49:00,64.4,57.0,30.16,SW,226,3.0,10.0,77,0.00,,,0.00,Wunderground v.1.15,2013-03-30 03:49:00,
2013-03-29 22:55:00,64.3,57.3,30.17,SE,143,2.0,10.0,78,0.00,,,0.00,Wunderground v.1.15,2013-03-30 03:55:00,
2013-03-29 23:00:00,64.0,57.0,30.17,South,191,2.0,10.0,78,0.00,,,0.00,Wunderground v.1.15,2013-03-30 04:00:00,
2013-03-29 23:02:00,63.9,56.9,30.17,SW,231,1.0,10.0,78,0.00,,,0.00,Wunderground v.1.15,2013-03-30 04:02:00,
2013-03-29 23:05:00,63.9,57.3,30.17,SW,215,2.0,10.0,79,0.00,,,0.00,Wunderground v.1.15,2013-03-30 04:05:00,
2013-03-29 23:07:00,63.8,57.2,30.17,WSW,243,2.0,10.0,79,0.00,,,0.00,Wunderground v.1.15,2013-03-30 04:07:00,
2013-03-29 23:12:00,63.7,57.1,30.17,SW,231,2.0,10.0,79,0.00,,,0.00,Wunderground v.1.15,2013-03-30 04:12:00,
2013-03-29 23:17:00,63.5,56.9,30.18,WSW,248,2.0,3.0,79,0.00,,,0.00,Wunderground v.1.15,2013-03-30 04:17:00,
2013-03-29 23:23:00,63.3,56.7,30.18,SSW,200,1.0,10.0,79,0.00,,,0.00,Wunderground v.1.15,2013-03-30 04:23:00,
2013-03-29 23:28:00,63.2,56.9,30.18,SW,225,2.0,10.0,80,0.00,,,0.00,Wunderground v.1.15,2013-03-30 04:28:00,
2013-03-29 23:34:00,62.9,56.6,30.17,WSW,242,2.0,10.0,80,0.00,,,0.00,Wunderground v.1.15,2013-03-30 04:34:00,
2013-03-29 23:39:00,62.7,56.8,30.17,WSW,242,1.0,10.0,81,0.00,,,0.00,Wunderground v.1.15,2013-03-30 04:39:00,
2013-03-29 23:45:00,62.5,56.6,30.17,WSW,241,0.0,10.0,81,0.00,,,0.00,Wunderground v.1.15,2013-03-30 04:45:00,
2013-03-29 23:50:00,62.2,56.3,30.17,SW,233,0.0,10.0,81,0.00,,,0.00,Wunderground v.1.15,2013-03-30 04:50:00,
2013-03-29 23:56:00,62.0,56.4,30.17,SSW,200,0.0,10.0,82,0.00,,,0.00,Wunderground v.1.15,2013-03-30 04:56:00,